Regional Weather Roundup
Issued by NWS

Home | Current Version | Previous Version | Text Only | Print | Product List | Glossary Off
Versions: 1 2 3 4 5 6 7 8 9 10 11 12 13 14 15 16 17 18 19 20 21 22 23 24 25 26 27 28 29 30 31 32 33 34 35 36 37 38 39 40 41 42 43 44 45 46 47 48 49 50

171
ASUS43 KMKX 180510
RWRWI

WISCONSIN REGIONAL WEATHER ROUNDUP
NATIONAL WEATHER SERVICE MILWAUKEE/SULLIVAN WI
1100 PM CST WED JAN 17 2018

NOTE: "FAIR" INDICATES FEW OR NO CLOUDS BELOW 12,000 FEET WITH NO
SIGNIFICANT WEATHER AND/OR OBSTRUCTIONS TO VISIBILITY.

WIZ001-002-006>008-014>016-023>028-180600-
NORTHWEST WISCONSIN

CITY           SKY/WX    TMP DP  RH WIND       PRES   REMARKS
SUPERIOR ARPT  FAIR      24  15  69 SW12      29.88F WCI  12
ASHLAND        FAIR      24  13  62 SW13      29.89  WCI  12
HAYWARD        FAIR      15   9  76 S6        29.91F WCI   6
SIREN          FAIR      25  17  69 W13       29.95S WCI  14
CUMBERLAND     FAIR      19  12  73 SW10      29.95F WCI   8
RICE LAKE      FAIR      22  15  74 CALM      29.98F
CHETEK         FAIR      23  15  72 W3        29.98S
LADYSMITH      FAIR      17  11  77 SW6       29.97F WCI   9
EAU CLAIRE     FAIR      23  15  71 SW13      30.00F WCI  11
MENOMONIE      FAIR      25  16  68 SW14      30.01F WCI  13
NEW RICHMOND   FAIR      18  12  77 SW6       30.01S WCI  10
OSCEOLA        FAIR      23  15  73 SW8       30.03S WCI  13
$$

WIZ003>005-009-010-017-018-180600-
NORTH CENTRAL WISCONSIN

CITY           SKY/WX    TMP DP  RH WIND       PRES   REMARKS
MANITOWISH WTR FAIR      17  10  71 SW7       29.87F WCI   8
ARBOR VITAE    FAIR      20  13  73 W9        29.87F WCI   9
WOODRUFF       FAIR      20  13  73 W9        29.87F WCI   9
RHINELANDER    FAIR      20  12  71 W13       29.89F WCI   7
EAGLE RIVER    FAIR      18  10  70 W10       29.86F WCI   7
LAND O LAKES   FAIR      20  12  71 W9        29.86F WCI   9
PHILLIPS       FAIR      18  11  75 SW9       29.91F WCI   7
TOMAHAWK       FAIR      21  13  71 W6        29.92F WCI  13
MEDFORD        FAIR      18  11  73 SW9       29.94F WCI   7
MERRILL        FAIR      20  12  69 W13       29.95F WCI   7
$$

WIZ029-030-035-036-043>047-180600-
CENTRAL WISCONSIN

CITY           SKY/WX    TMP DP  RH WIND       PRES   REMARKS
WAUSAU         FAIR      20  11  68 W9        29.96S WCI   9
MOSINEE        NOT AVBL
MARSHFIELD     FAIR      19  11  70 W13       29.97S WCI   6
STEVENS POINT  FAIR      19   9  67 SW12G17   30.00S WCI   6
WAUPACA        FAIR      23  11  59 SW13      30.01S WCI  11
WAUTOMA        FAIR      19  10  68 SW13      30.04F WCI   6
WISC RAPIDS    FAIR      20   9  62 W9        30.03F WCI   9
CAMP DOUGLAS   CLEAR     21  12  68 W16G22    30.05F WCI   7
$$

WIZ011>013-019>022-031-037>040-048>050-180600-
NORTHEAST WISCONSIN

CITY           SKY/WX    TMP DP  RH WIND       PRES   REMARKS
ANTIGO         FAIR      19  11  69 W16       29.92R WCI   5
SHAWANO        FAIR      25  12  57 W12G17    29.95S WCI  14
OCONTO         FAIR      22  10  58 W9        29.96R WCI  12
STURGEON BAY   FAIR      21  11  65 W17       29.96R WCI   7
GREEN BAY      FAIR      20   8  60 SW13      29.99S WCI   7
MANITOWOC      FAIR      20  10  65 W9G21     30.01R WCI   9
APPLETON       CLEAR     18   7  62 SW18      29.98  WCI   2
CLINTONVILLE   FAIR      23  10  58 W13       29.98S WCI  11
OSHKOSH        FAIR      20   9  62 SW10G20   30.02F WCI   9
$$

WIZ032>034-041-042-053>061-180600-
SOUTHWEST WISCONSIN

CITY           SKY/WX    TMP DP  RH WIND       PRES   REMARKS
LA CROSSE      FAIR      22  12  65 S10       30.11F WCI  11
SPARTA         FAIR      23  13  68 SW5       30.09F WCI  16
VIROQUA        FAIR      20  13  74 W15       30.09F WCI   6
BOSCOBEL       FAIR      21   9  59 SW13G24   30.17F WCI   9
PRAIRIE DU CHI FAIR      21   8  57 W3        30.19F
PLATTEVILLE    FAIR      20  11  68 SW18G24   30.18F WCI   5
$$

WIZ056-057-062-063-064-067-068-180600-
SOUTH CENTRAL WISCONSIN

CITY           SKY/WX    TMP DP  RH WIND       PRES   REMARKS
REEDSBURG      FAIR      19  10  65 SW13G21   30.09F WCI   7
BARABOO/DELLS  FAIR      19   9  63 SW14G20   30.07F WCI   6
LONE ROCK      FAIR      18   9  68 W5        30.15F WCI  11
MINERAL POINT  FAIR      21  12  68 W17G23    30.13F WCI   7
MADISON        FAIR      19   9  65 SW9G21    30.12F WCI   8
MIDDLETON      FAIR      21  10  62 SW10G18   30.12F WCI  10
WATERTOWN      FAIR      18  10  71 SW12G20   30.11F WCI   5
MONROE         FAIR      19  10  68 SW23G29   30.13F WCI   2
JANESVILLE     FAIR      21  12  68 SW15G22   30.17F WCI   8
$$

WIZ051-052-058>065-066-070>072-180600-
SOUTHEAST WISCONSIN

CITY           SKY/WX    TMP DP  RH WIND       PRES   REMARKS
MILWAUKEE      FAIR      20  10  65 W15G26    30.08F WCI   6
WAUKESHA       FAIR      18   9  68 W22G32    30.09F WCI   0
MILWAUKEE/TIMM FAIR      19   9  63 W23G32    30.07F WCI   2
RACINE         FAIR      19  10  68 W22G35    30.11F WCI   2
BURLINGTON     FAIR      18   9  69 SW18G25   30.14F WCI   2
KENOSHA        MIX PCPN  18   9  68 W26G40    30.11F WCI  -1
FOND DU LAC    FAIR      19   7  59 SW13G21   30.04F WCI   6
SHEBOYGAN      FAIR      20  10  65 W17G28    30.02S WCI   5
WEST BEND      FAIR      19  10  68 W20G26    30.04F WCI   4
JUNEAU         FAIR      17   8  70 SW13      30.10S WCI   3
$$

LSZ147-162-180600-
LAKE SUPERIOR

STATION/POSITION TIME  TEMP    WIND        PRES    WAVE
                       AIR SEA DIR/SP/G            HT/PER
                 (UTC) (F)     (DEG/KT/KT) (MB)    (FT/S)
DEVILS ISLAND    0500   27     230/ 18/ 22 1011.5F
SAXON HARBOR     0440   25     200/ 10/ 18 1011.5F
$$

LMZ867-665-643>646-180600-
LAKE MICHIGAN

STATION/POSITION TIME  TEMP    WIND        PRES    WAVE
                       AIR SEA DIR/SP/G            HT/PER
                 (UTC) (F)     (DEG/KT/KT) (MB)    (FT/S)
NORTHPORT PIER   0445   22     230/ 10/ 27 1015.6R
KEWAUNEE LAKESHO 0442   21     260/ 13/ 20 1014.3F
SHEBOYGAN LAKESH 0500   22     240/ 14/ 18 1018.1S
PORT WASHINGTON  0500   21     260/ 11     1018.3
MILWAUKEE LAKESH 0450   22     260/ 21/ 25   N/A
KENOSHA   LAKESH 0500   19     250/ 19/ 30 1019.6
$$

TC  - TEMPERATURE IN CELSIUS
VSB - VISIBILITY IN STATUTE MILES
WCI - WIND CHILL INDEX
HX  - HEAT INDEX





USA.gov is the U.S. government's official web portal to all federal, state and local government web resources and services.